NORTHEAST SUFFOLK  -  Special Weather Statement Special Weather Statement        NORTHERN NASSAU  -  Special Weather Statement Special Weather Statement        NORTHWEST SUFFOLK  -  Special Weather Statement Special Weather Statement        SOUTHEAST SUFFOLK  -  Special Weather Statement Special Weather Statement        SOUTHERN NASSAU  -  Special Weather Statement Special Weather Statement        SOUTHWEST SUFFOLK  -  Special Weather Statement Special Weather Statement      

Active alerts

Northern Nassau
  Details for Northern Nassau Special Weather Statement
Southern Nassau
  Details for Southern Nassau Special Weather Statement
Northwest Suffolk
  Details for Northwest Suffolk Special Weather Statement
Southwest Suffolk
  Details for Southwest Suffolk Special Weather Statement
Northeast Suffolk
  Details for Northeast Suffolk Special Weather Statement
Southeast Suffolk
  Details for Southeast Suffolk Special Weather Statement


WXM80 ListenWXM80 Stop

You find our weather info also at:

UK Metoffice

WeatherCloud

Weather Underground

Northeastern Weather Network

AWEKAS

Citizen Weather Observer Program (CWOP)

HAMweather, WeatherForYou, PWS Weather


Weather Underground History page Text

Daily Summary for May 9, 2017 Units:  Both    English   Metric
« Previous Day
Next Day »
Daily Weekly Monthly Yearly Custom
  High: Low: Average:
Temperature: 58.7 °F /  14.8 °C 46.8 °F /  8.2 °C 52.3 °F /  11.3 °C
Dew Point: 45.8 °F /  7.7 °C 39.5 °F /  4.2 °C 42.4 °F /  5.8 °C
Humidity: 80 % 55 % 69 %
Wind Speed: 8.2 mph /  13.2 km/h - 3.3 mph /  5.3 km/h
Wind Gust: 15.0 mph /  24.1 km/h - -
Wind:- - ENE
Pressure: 29.97 in /  1014.8 hPa 29.88 in /  1011.7 hPa -
Precipitation: 0.00 in /  0 mm    
Historical Graphs
 
 
Tabular Data for May 9, 2017
Time Temperature Dew Point Pressure Wind Wind Speed Wind Gust Humidity Rainfall Rate (Hourly)
00:00 50.8 °F /  10.4 °C 40.6 °F /  4.8 °C 29.91 in /  1012.8 hPa ENE 1.3 mph /  2.1 km/h 2.3 mph /  3.7 km/h 68 % 0.00 in /  0 mm
00:05 50.8 °F /  10.4 °C 41.0 °F /  5 °C 29.91 in /  1012.8 hPa ENE 2.0 mph /  3.2 km/h 3.5 mph /  5.6 km/h 69 % 0.00 in /  0 mm
00:10 50.8 °F /  10.4 °C 41.4 °F /  5.2 °C 29.91 in /  1012.8 hPa ENE 2.2 mph /  3.5 km/h 3.5 mph /  5.6 km/h 70 % 0.00 in /  0 mm
00:15 50.8 °F /  10.4 °C 41.0 °F /  5 °C 29.91 in /  1012.8 hPa ENE 2.3 mph /  3.7 km/h 3.5 mph /  5.6 km/h 69 % 0.00 in /  0 mm
00:20 50.8 °F /  10.4 °C 41.0 °F /  5 °C 29.91 in /  1012.8 hPa ENE 1.1 mph /  1.8 km/h 2.3 mph /  3.7 km/h 69 % 0.00 in /  0 mm
00:25 50.8 °F /  10.4 °C 41.7 °F /  5.4 °C 29.91 in /  1012.8 hPa ENE 1.0 mph /  1.6 km/h 2.3 mph /  3.7 km/h 71 % 0.00 in /  0 mm
00:30 50.7 °F /  10.4 °C 42.0 °F /  5.6 °C 29.91 in /  1012.8 hPa ENE 0.9 mph /  1.4 km/h 2.3 mph /  3.7 km/h 72 % 0.00 in /  0 mm
00:35 50.6 °F /  10.3 °C 41.2 °F /  5.1 °C 29.91 in /  1012.8 hPa ENE 1.1 mph /  1.8 km/h 2.3 mph /  3.7 km/h 70 % 0.00 in /  0 mm
00:40 50.5 °F /  10.3 °C 40.7 °F /  4.8 °C 29.91 in /  1012.8 hPa ENE 1.0 mph /  1.6 km/h 2.0 mph /  3.2 km/h 69 % 0.00 in /  0 mm
00:45 50.5 °F /  10.3 °C 41.1 °F /  5.1 °C 29.91 in /  1012.8 hPa ENE 1.0 mph /  1.6 km/h 2.0 mph /  3.2 km/h 70 % 0.00 in /  0 mm
00:50 50.5 °F /  10.3 °C 41.4 °F /  5.2 °C 29.91 in /  1012.8 hPa ENE 0.6 mph /  1 km/h 2.3 mph /  3.7 km/h 71 % 0.00 in /  0 mm
00:55 50.4 °F /  10.2 °C 41.0 °F /  5 °C 29.91 in /  1012.8 hPa ENE 1.4 mph /  2.3 km/h 3.5 mph /  5.6 km/h 70 % 0.00 in /  0 mm
01:00 50.3 °F /  10.2 °C 40.9 °F /  4.9 °C 29.91 in /  1012.8 hPa ENE 2.4 mph /  3.9 km/h 3.0 mph /  4.8 km/h 70 % 0.00 in /  0 mm
01:05 50.3 °F /  10.2 °C 41.3 °F /  5.2 °C 29.91 in /  1012.8 hPa ENE 6.0 mph /  9.7 km/h 10.0 mph /  16.1 km/h 71 % 0.00 in /  0 mm
01:11 50.3 °F /  10.2 °C 41.3 °F /  5.2 °C 29.91 in /  1012.8 hPa ENE 3.0 mph /  4.8 km/h 9.0 mph /  14.5 km/h 71 % 0.00 in /  0 mm
01:15 50.3 °F /  10.2 °C 42.0 °F /  5.6 °C 29.91 in /  1012.8 hPa ENE 6.0 mph /  9.7 km/h 10.0 mph /  16.1 km/h 73 % 0.00 in /  0 mm
01:20 50.2 °F /  10.1 °C 41.9 °F /  5.5 °C 29.91 in /  1012.8 hPa ENE 5.0 mph /  8 km/h 12.0 mph /  19.3 km/h 73 % 0.00 in /  0 mm
01:25 50.1 °F /  10.1 °C 41.4 °F /  5.2 °C 29.90 in /  1012.4 hPa ENE 3.0 mph /  4.8 km/h 8.0 mph /  12.9 km/h 72 % 0.00 in /  0 mm
01:31 49.9 °F /  9.9 °C 40.9 °F /  4.9 °C 29.90 in /  1012.4 hPa ENE 3.0 mph /  4.8 km/h 7.0 mph /  11.3 km/h 71 % 0.00 in /  0 mm
01:35 49.9 °F /  9.9 °C 41.6 °F /  5.3 °C 29.90 in /  1012.4 hPa East 3.0 mph /  4.8 km/h 7.0 mph /  11.3 km/h 73 % 0.00 in /  0 mm
01:40 49.7 °F /  9.8 °C 41.4 °F /  5.2 °C 29.90 in /  1012.4 hPa East 5.0 mph /  8 km/h 6.0 mph /  9.7 km/h 73 % 0.00 in /  0 mm
01:45 49.7 °F /  9.8 °C 42.1 °F /  5.6 °C 29.89 in /  1012.1 hPa East 5.0 mph /  8 km/h 7.0 mph /  11.3 km/h 75 % 0.00 in /  0 mm
01:50 49.6 °F /  9.8 °C 42.0 °F /  5.6 °C 29.89 in /  1012.1 hPa East 5.0 mph /  8 km/h 10.0 mph /  16.1 km/h 75 % 0.00 in /  0 mm
01:56 49.5 °F /  9.7 °C 41.9 °F /  5.5 °C 29.89 in /  1012.1 hPa East 5.0 mph /  8 km/h 6.0 mph /  9.7 km/h 75 % 0.00 in /  0 mm
02:01 49.4 °F /  9.7 °C 42.1 °F /  5.6 °C 29.89 in /  1012.1 hPa East 3.1 mph /  5 km/h 6.9 mph /  11.1 km/h 76 % 0.00 in /  0 mm
02:05 49.4 °F /  9.7 °C 41.8 °F /  5.4 °C 29.89 in /  1012.1 hPa ENE 3.0 mph /  4.8 km/h 7.0 mph /  11.3 km/h 75 % 0.00 in /  0 mm
02:10 49.2 °F /  9.6 °C 41.6 °F /  5.3 °C 29.89 in /  1012.1 hPa ENE 3.0 mph /  4.8 km/h 5.0 mph /  8 km/h 75 % 0.00 in /  0 mm
02:15 49.1 °F /  9.5 °C 41.9 °F /  5.5 °C 29.89 in /  1012.1 hPa East 6.0 mph /  9.7 km/h 6.0 mph /  9.7 km/h 76 % 0.00 in /  0 mm
02:20 49.0 °F /  9.4 °C 41.4 °F /  5.2 °C 29.89 in /  1012.1 hPa East 3.0 mph /  4.8 km/h 6.0 mph /  9.7 km/h 75 % 0.00 in /  0 mm
02:26 48.8 °F /  9.3 °C 41.6 °F /  5.3 °C 29.89 in /  1012.1 hPa East 5.0 mph /  8 km/h 6.0 mph /  9.7 km/h 76 % 0.00 in /  0 mm
02:31 48.7 °F /  9.3 °C 41.5 °F /  5.3 °C 29.89 in /  1012.1 hPa East 3.2 mph /  5.1 km/h 6.0 mph /  9.7 km/h 76 % 0.00 in /  0 mm
02:36 48.6 °F /  9.2 °C 41.3 °F /  5.2 °C 29.88 in /  1011.7 hPa East 5.0 mph /  8 km/h 9.0 mph /  14.5 km/h 76 % 0.00 in /  0 mm
02:41 48.5 °F /  9.2 °C 41.6 °F /  5.3 °C 29.88 in /  1011.7 hPa East 3.0 mph /  4.8 km/h 6.0 mph /  9.7 km/h 77 % 0.00 in /  0 mm
02:46 48.3 °F /  9.1 °C 41.1 °F /  5.1 °C 29.89 in /  1012.1 hPa East 3.0 mph /  4.8 km/h 7.0 mph /  11.3 km/h 76 % 0.00 in /  0 mm
02:51 48.1 °F /  8.9 °C 40.5 °F /  4.7 °C 29.88 in /  1011.7 hPa East 4.9 mph /  7.9 km/h 6.0 mph /  9.7 km/h 75 % 0.00 in /  0 mm
02:56 48.0 °F /  8.9 °C 41.1 °F /  5.1 °C 29.89 in /  1012.1 hPa East 3.0 mph /  4.8 km/h 7.0 mph /  11.3 km/h 77 % 0.00 in /  0 mm
03:01 47.8 °F /  8.8 °C 40.6 °F /  4.8 °C 29.89 in /  1012.1 hPa ENE 6.9 mph /  11.1 km/h 9.2 mph /  14.8 km/h 76 % 0.00 in /  0 mm
03:06 47.8 °F /  8.8 °C 40.9 °F /  4.9 °C 29.89 in /  1012.1 hPa ENE 5.0 mph /  8 km/h 12.0 mph /  19.3 km/h 77 % 0.00 in /  0 mm
03:11 47.8 °F /  8.8 °C 41.3 °F /  5.2 °C 29.89 in /  1012.1 hPa ENE 3.0 mph /  4.8 km/h 9.0 mph /  14.5 km/h 78 % 0.00 in /  0 mm
03:16 47.7 °F /  8.7 °C 41.2 °F /  5.1 °C 29.89 in /  1012.1 hPa ENE 3.0 mph /  4.8 km/h 12.0 mph /  19.3 km/h 78 % 0.00 in /  0 mm
03:21 47.7 °F /  8.7 °C 40.8 °F /  4.9 °C 29.90 in /  1012.4 hPa ENE 3.0 mph /  4.8 km/h 10.0 mph /  16.1 km/h 77 % 0.00 in /  0 mm
03:26 47.7 °F /  8.7 °C 40.8 °F /  4.9 °C 29.90 in /  1012.4 hPa ENE 8.0 mph /  12.9 km/h 14.0 mph /  22.5 km/h 77 % 0.00 in /  0 mm
03:31 47.7 °F /  8.7 °C 40.8 °F /  4.9 °C 29.90 in /  1012.4 hPa ENE 7.0 mph /  11.3 km/h 12.0 mph /  19.3 km/h 77 % 0.00 in /  0 mm
03:36 47.6 °F /  8.7 °C 40.7 °F /  4.8 °C 29.90 in /  1012.4 hPa ENE 6.0 mph /  9.7 km/h 14.0 mph /  22.5 km/h 77 % 0.00 in /  0 mm
03:41 47.6 °F /  8.7 °C 41.1 °F /  5.1 °C 29.90 in /  1012.4 hPa East 6.1 mph /  9.8 km/h 8.1 mph /  13 km/h 78 % 0.00 in /  0 mm
03:46 47.6 °F /  8.7 °C 41.1 °F /  5.1 °C 29.90 in /  1012.4 hPa ENE 3.0 mph /  4.8 km/h 12.0 mph /  19.3 km/h 78 % 0.00 in /  0 mm
03:51 47.5 °F /  8.6 °C 41.0 °F /  5 °C 29.90 in /  1012.4 hPa ENE 7.0 mph /  11.3 km/h 12.0 mph /  19.3 km/h 78 % 0.00 in /  0 mm
03:56 47.4 °F /  8.6 °C 40.9 °F /  4.9 °C 29.90 in /  1012.4 hPa ENE 6.0 mph /  9.7 km/h 9.0 mph /  14.5 km/h 78 % 0.00 in /  0 mm
04:01 47.4 °F /  8.6 °C 40.6 °F /  4.8 °C 29.90 in /  1012.4 hPa ENE 7.3 mph /  11.7 km/h 10.4 mph /  16.7 km/h 77 % 0.00 in /  0 mm
04:06 47.3 °F /  8.5 °C 40.5 °F /  4.7 °C 29.90 in /  1012.4 hPa ENE 6.0 mph /  9.7 km/h 12.0 mph /  19.3 km/h 77 % 0.00 in /  0 mm
04:11 47.3 °F /  8.5 °C 40.8 °F /  4.9 °C 29.90 in /  1012.4 hPa ENE 7.0 mph /  11.3 km/h 13.0 mph /  20.9 km/h 78 % 0.00 in /  0 mm
04:16 47.2 °F /  8.4 °C 41.0 °F /  5 °C 29.90 in /  1012.4 hPa ENE 6.0 mph /  9.7 km/h 10.0 mph /  16.1 km/h 79 % 0.00 in /  0 mm
04:21 47.2 °F /  8.4 °C 41.0 °F /  5 °C 29.90 in /  1012.4 hPa ENE 8.0 mph /  12.9 km/h 14.0 mph /  22.5 km/h 79 % 0.00 in /  0 mm
04:26 47.1 °F /  8.4 °C 40.9 °F /  4.9 °C 29.90 in /  1012.4 hPa ENE 8.2 mph /  13.2 km/h 15.0 mph /  24.1 km/h 79 % 0.00 in /  0 mm
04:31 47.0 °F /  8.3 °C 41.2 °F /  5.1 °C 29.90 in /  1012.4 hPa ENE 6.0 mph /  9.7 km/h 10.0 mph /  16.1 km/h 80 % 0.00 in /  0 mm
04:36 47.0 °F /  8.3 °C 41.1 °F /  5.1 °C 29.90 in /  1012.4 hPa ENE 6.0 mph /  9.7 km/h 13.0 mph /  20.9 km/h 80 % 0.00 in /  0 mm
04:41 46.9 °F /  8.3 °C 40.7 °F /  4.8 °C 29.90 in /  1012.4 hPa ENE 7.0 mph /  11.3 km/h 12.0 mph /  19.3 km/h 79 % 0.00 in /  0 mm
04:43 46.9 °F /  8.3 °C 40.7 °F /  4.8 °C 29.90 in /  1012.4 hPa ENE 7.1 mph /  11.4 km/h 11.5 mph /  18.5 km/h 79 % 0.00 in /  0 mm
04:48 46.9 °F /  8.3 °C 41.1 °F /  5.1 °C 29.90 in /  1012.4 hPa ENE 6.3 mph /  10.1 km/h 10.4 mph /  16.7 km/h 80 % 0.00 in /  0 mm
04:53 46.9 °F /  8.3 °C 40.7 °F /  4.8 °C 29.90 in /  1012.4 hPa NE 3.9 mph /  6.3 km/h 6.9 mph /  11.1 km/h 79 % 0.00 in /  0 mm
04:58 47.0 °F /  8.3 °C 41.1 °F /  5.1 °C 29.90 in /  1012.4 hPa East 5.5 mph /  8.9 km/h 11.5 mph /  18.5 km/h 80 % 0.00 in /  0 mm
05:03 47.0 °F /  8.3 °C 41.1 °F /  5.1 °C 29.90 in /  1012.4 hPa NE 5.5 mph /  8.9 km/h 8.1 mph /  13 km/h 80 % 0.00 in /  0 mm
05:09 47.0 °F /  8.3 °C 40.8 °F /  4.9 °C 29.90 in /  1012.4 hPa ENE 6.4 mph /  10.3 km/h 10.4 mph /  16.7 km/h 79 % 0.00 in /  0 mm
05:14 47.0 °F /  8.3 °C 40.8 °F /  4.9 °C 29.90 in /  1012.4 hPa ENE 3.7 mph /  6 km/h 8.1 mph /  13 km/h 79 % 0.00 in /  0 mm
05:19 47.0 °F /  8.3 °C 40.8 °F /  4.9 °C 29.90 in /  1012.4 hPa ENE 5.7 mph /  9.2 km/h 9.2 mph /  14.8 km/h 79 % 0.00 in /  0 mm
05:24 47.0 °F /  8.3 °C 40.8 °F /  4.9 °C 29.90 in /  1012.4 hPa ENE 4.7 mph /  7.6 km/h 9.2 mph /  14.8 km/h 79 % 0.00 in /  0 mm
05:29 47.1 °F /  8.4 °C 40.9 °F /  4.9 °C 29.90 in /  1012.4 hPa NE 5.9 mph /  9.5 km/h 11.5 mph /  18.5 km/h 79 % 0.00 in /  0 mm
05:34 47.1 °F /  8.4 °C 40.6 °F /  4.8 °C 29.90 in /  1012.4 hPa ENE 5.4 mph /  8.7 km/h 10.4 mph /  16.7 km/h 78 % 0.00 in /  0 mm
05:39 47.0 °F /  8.3 °C 40.2 °F /  4.6 °C 29.91 in /  1012.8 hPa ENE 5.7 mph /  9.2 km/h 11.5 mph /  18.5 km/h 77 % 0.00 in /  0 mm
05:44 47.0 °F /  8.3 °C 40.2 °F /  4.6 °C 29.91 in /  1012.8 hPa ENE 4.1 mph /  6.6 km/h 6.9 mph /  11.1 km/h 77 % 0.00 in /  0 mm
05:49 47.0 °F /  8.3 °C 40.2 °F /  4.6 °C 29.91 in /  1012.8 hPa East 4.9 mph /  7.9 km/h 9.2 mph /  14.8 km/h 77 % 0.00 in /  0 mm
05:54 46.9 °F /  8.3 °C 40.1 °F /  4.5 °C 29.91 in /  1012.8 hPa ENE 3.7 mph /  6 km/h 5.8 mph /  9.3 km/h 77 % 0.00 in /  0 mm
05:59 46.8 °F /  8.2 °C 39.6 °F /  4.2 °C 29.91 in /  1012.8 hPa ENE 4.4 mph /  7.1 km/h 8.0 mph /  12.9 km/h 76 % 0.00 in /  0 mm
06:04 46.8 °F /  8.2 °C 40.0 °F /  4.4 °C 29.91 in /  1012.8 hPa ENE 4.6 mph /  7.4 km/h 8.1 mph /  13 km/h 77 % 0.00 in /  0 mm
06:09 46.8 °F /  8.2 °C 40.0 °F /  4.4 °C 29.91 in /  1012.8 hPa ENE 7.0 mph /  11.3 km/h 7.0 mph /  11.3 km/h 77 % 0.00 in /  0 mm
06:14 46.9 °F /  8.3 °C 40.4 °F /  4.7 °C 29.91 in /  1012.8 hPa ENE 4.0 mph /  6.4 km/h 7.0 mph /  11.3 km/h 78 % 0.00 in /  0 mm
06:19 47.0 °F /  8.3 °C 40.5 °F /  4.7 °C 29.91 in /  1012.8 hPa ENE 5.8 mph /  9.3 km/h 9.2 mph /  14.8 km/h 78 % 0.00 in /  0 mm
06:24 47.2 °F /  8.4 °C 40.4 °F /  4.7 °C 29.92 in /  1013.1 hPa ENE 3.4 mph /  5.5 km/h 6.9 mph /  11.1 km/h 77 % 0.00 in /  0 mm
06:29 47.6 °F /  8.7 °C 40.7 °F /  4.8 °C 29.91 in /  1012.8 hPa East 5.3 mph /  8.5 km/h 10.0 mph /  16.1 km/h 77 % 0.00 in /  0 mm
06:34 47.9 °F /  8.8 °C 40.4 °F /  4.7 °C 29.92 in /  1013.1 hPa East 6.6 mph /  10.6 km/h 9.2 mph /  14.8 km/h 75 % 0.00 in /  0 mm
06:39 48.2 °F /  9 °C 40.6 °F /  4.8 °C 29.92 in /  1013.1 hPa ENE 4.5 mph /  7.2 km/h 6.9 mph /  11.1 km/h 75 % 0.00 in /  0 mm
06:44 48.2 °F /  9 °C 40.6 °F /  4.8 °C 29.92 in /  1013.1 hPa ENE 3.9 mph /  6.3 km/h 5.8 mph /  9.3 km/h 75 % 0.00 in /  0 mm
06:49 48.2 °F /  9 °C 40.6 °F /  4.8 °C 29.92 in /  1013.1 hPa ENE 4.6 mph /  7.4 km/h 8.1 mph /  13 km/h 75 % 0.00 in /  0 mm
06:54 48.1 °F /  8.9 °C 40.9 °F /  4.9 °C 29.92 in /  1013.1 hPa ENE 1.8 mph /  2.9 km/h 3.5 mph /  5.6 km/h 76 % 0.00 in /  0 mm
06:59 48.1 °F /  8.9 °C 40.5 °F /  4.7 °C 29.92 in /  1013.1 hPa East 2.6 mph /  4.2 km/h 6.9 mph /  11.1 km/h 75 % 0.00 in /  0 mm
07:04 48.1 °F /  8.9 °C 40.5 °F /  4.7 °C 29.92 in /  1013.1 hPa NE 4.2 mph /  6.8 km/h 7.0 mph /  11.3 km/h 75 % 0.00 in /  0 mm
07:09 48.1 °F /  8.9 °C 40.5 °F /  4.7 °C 29.92 in /  1013.1 hPa ENE 4.2 mph /  6.8 km/h 9.2 mph /  14.8 km/h 75 % 0.00 in /  0 mm
07:14 48.3 °F /  9.1 °C 40.4 °F /  4.7 °C 29.92 in /  1013.1 hPa NE 3.5 mph /  5.6 km/h 9.2 mph /  14.8 km/h 74 % 0.00 in /  0 mm
07:19 48.6 °F /  9.2 °C 40.7 °F /  4.8 °C 29.92 in /  1013.1 hPa ENE 3.7 mph /  6 km/h 5.8 mph /  9.3 km/h 74 % 0.00 in /  0 mm
07:24 49.0 °F /  9.4 °C 41.4 °F /  5.2 °C 29.92 in /  1013.1 hPa ENE 2.8 mph /  4.5 km/h 3.5 mph /  5.6 km/h 75 % 0.00 in /  0 mm
07:29 49.2 °F /  9.6 °C 40.6 °F /  4.8 °C 29.92 in /  1013.1 hPa ENE 2.0 mph /  3.2 km/h 6.9 mph /  11.1 km/h 72 % 0.00 in /  0 mm
07:34 49.2 °F /  9.6 °C 40.6 °F /  4.8 °C 29.93 in /  1013.4 hPa ENE 2.9 mph /  4.7 km/h 8.1 mph /  13 km/h 72 % 0.00 in /  0 mm
07:40 49.2 °F /  9.6 °C 40.2 °F /  4.6 °C 29.93 in /  1013.4 hPa ENE 3.9 mph /  6.3 km/h 9.2 mph /  14.8 km/h 71 % 0.00 in /  0 mm
07:45 49.1 °F /  9.5 °C 40.1 °F /  4.5 °C 29.93 in /  1013.4 hPa ENE 4.5 mph /  7.2 km/h 8.1 mph /  13 km/h 71 % 0.00 in /  0 mm
07:50 49.2 °F /  9.6 °C 40.9 °F /  4.9 °C 29.93 in /  1013.4 hPa East 4.0 mph /  6.4 km/h 8.1 mph /  13 km/h 73 % 0.00 in /  0 mm
07:55 49.4 °F /  9.7 °C 41.5 °F /  5.3 °C 29.93 in /  1013.4 hPa East 3.6 mph /  5.8 km/h 9.2 mph /  14.8 km/h 74 % 0.00 in /  0 mm
08:00 49.5 °F /  9.7 °C 40.8 °F /  4.9 °C 29.93 in /  1013.4 hPa ENE 3.4 mph /  5.5 km/h 7.0 mph /  11.3 km/h 72 % 0.00 in /  0 mm
08:05 49.6 °F /  9.8 °C 39.5 °F /  4.2 °C 29.93 in /  1013.4 hPa ENE 5.0 mph /  8 km/h 10.4 mph /  16.7 km/h 68 % 0.00 in /  0 mm
08:10 49.5 °F /  9.7 °C 39.7 °F /  4.3 °C 29.93 in /  1013.4 hPa ENE 7.3 mph /  11.7 km/h 11.5 mph /  18.5 km/h 69 % 0.00 in /  0 mm
08:15 49.7 °F /  9.8 °C 40.3 °F /  4.6 °C 29.93 in /  1013.4 hPa ENE 5.3 mph /  8.5 km/h 8.1 mph /  13 km/h 70 % 0.00 in /  0 mm
08:20 50.0 °F /  10 °C 39.8 °F /  4.3 °C 29.94 in /  1013.8 hPa ENE 6.3 mph /  10.1 km/h 9.2 mph /  14.8 km/h 68 % 0.00 in /  0 mm
08:21 50.0 °F /  10 °C 39.5 °F /  4.2 °C 29.93 in /  1013.4 hPa East 5.9 mph /  9.5 km/h 9.2 mph /  14.8 km/h 67 % 0.00 in /  0 mm
08:26 50.1 °F /  10.1 °C 39.6 °F /  4.2 °C 29.94 in /  1013.8 hPa ENE 6.9 mph /  11.1 km/h 8.1 mph /  13 km/h 67 % 0.00 in /  0 mm
08:31 50.5 °F /  10.3 °C 39.9 °F /  4.4 °C 29.94 in /  1013.8 hPa ENE 6.2 mph /  10 km/h 8.1 mph /  13 km/h 67 % 0.00 in /  0 mm
08:36 50.8 °F /  10.4 °C 41.0 °F /  5 °C 29.94 in /  1013.8 hPa ENE 5.6 mph /  9 km/h 8.1 mph /  13 km/h 69 % 0.00 in /  0 mm
08:41 50.8 °F /  10.4 °C 40.6 °F /  4.8 °C 29.94 in /  1013.8 hPa ENE 4.6 mph /  7.4 km/h 9.2 mph /  14.8 km/h 68 % 0.00 in /  0 mm
08:46 50.6 °F /  10.3 °C 39.7 °F /  4.3 °C 29.94 in /  1013.8 hPa East 3.1 mph /  5 km/h 5.0 mph /  8 km/h 66 % 0.00 in /  0 mm
08:51 50.7 °F /  10.4 °C 40.5 °F /  4.7 °C 29.93 in /  1013.4 hPa ENE 5.1 mph /  8.2 km/h 9.0 mph /  14.5 km/h 68 % 0.00 in /  0 mm
08:56 50.9 °F /  10.5 °C 41.1 °F /  5.1 °C 29.94 in /  1013.8 hPa ENE 2.5 mph /  4 km/h 3.5 mph /  5.6 km/h 69 % 0.00 in /  0 mm
09:01 51.4 °F /  10.8 °C 41.2 °F /  5.1 °C 29.94 in /  1013.8 hPa ENE 2.9 mph /  4.7 km/h 7.0 mph /  11.3 km/h 68 % 0.00 in /  0 mm
09:06 51.8 °F /  11 °C 40.8 °F /  4.9 °C 29.94 in /  1013.8 hPa ENE 3.8 mph /  6.1 km/h 9.2 mph /  14.8 km/h 66 % 0.00 in /  0 mm
09:11 52.2 °F /  11.2 °C 40.8 °F /  4.9 °C 29.94 in /  1013.8 hPa ENE 6.7 mph /  10.8 km/h 9.0 mph /  14.5 km/h 65 % 0.00 in /  0 mm
09:16 52.5 °F /  11.4 °C 40.7 °F /  4.8 °C 29.94 in /  1013.8 hPa East 7.4 mph /  11.9 km/h 12.7 mph /  20.4 km/h 64 % 0.00 in /  0 mm
09:21 52.7 °F /  11.5 °C 42.0 °F /  5.6 °C 29.94 in /  1013.8 hPa East 7.2 mph /  11.6 km/h 10.4 mph /  16.7 km/h 67 % 0.00 in /  0 mm
09:26 52.6 °F /  11.4 °C 41.9 °F /  5.5 °C 29.94 in /  1013.8 hPa East 6.3 mph /  10.1 km/h 11.5 mph /  18.5 km/h 67 % 0.00 in /  0 mm
09:31 52.7 °F /  11.5 °C 42.4 °F /  5.8 °C 29.94 in /  1013.8 hPa ENE 6.0 mph /  9.7 km/h 8.1 mph /  13 km/h 68 % 0.00 in /  0 mm
09:36 52.4 °F /  11.3 °C 41.4 °F /  5.2 °C 29.95 in /  1014.1 hPa ENE 6.6 mph /  10.6 km/h 9.2 mph /  14.8 km/h 66 % 0.00 in /  0 mm
09:41 52.2 °F /  11.2 °C 42.3 °F /  5.7 °C 29.95 in /  1014.1 hPa ENE 4.6 mph /  7.4 km/h 7.0 mph /  11.3 km/h 69 % 0.00 in /  0 mm
09:46 52.6 °F /  11.4 °C 42.7 °F /  5.9 °C 29.95 in /  1014.1 hPa ENE 4.7 mph /  7.6 km/h 6.9 mph /  11.1 km/h 69 % 0.00 in /  0 mm
09:51 53.4 °F /  11.9 °C 43.5 °F /  6.4 °C 29.95 in /  1014.1 hPa ENE 5.9 mph /  9.5 km/h 8.0 mph /  12.9 km/h 69 % 0.00 in /  0 mm
09:56 53.9 °F /  12.2 °C 42.4 °F /  5.8 °C 29.95 in /  1014.1 hPa NE 4.0 mph /  6.4 km/h 9.2 mph /  14.8 km/h 65 % 0.00 in /  0 mm
10:01 54.3 °F /  12.4 °C 43.6 °F /  6.4 °C 29.95 in /  1014.1 hPa ENE 3.5 mph /  5.6 km/h 5.0 mph /  8 km/h 67 % 0.00 in /  0 mm
10:06 54.6 °F /  12.6 °C 43.1 °F /  6.2 °C 29.95 in /  1014.1 hPa ENE 3.9 mph /  6.3 km/h 5.8 mph /  9.3 km/h 65 % 0.00 in /  0 mm
10:11 54.8 °F /  12.7 °C 43.3 °F /  6.3 °C 29.95 in /  1014.1 hPa NE 5.3 mph /  8.5 km/h 6.9 mph /  11.1 km/h 65 % 0.00 in /  0 mm
10:16 54.9 °F /  12.7 °C 42.9 °F /  6.1 °C 29.95 in /  1014.1 hPa ENE 6.4 mph /  10.3 km/h 10.4 mph /  16.7 km/h 64 % 0.00 in /  0 mm
10:21 54.8 °F /  12.7 °C 42.4 °F /  5.8 °C 29.95 in /  1014.1 hPa NE 5.5 mph /  8.9 km/h 8.1 mph /  13 km/h 63 % 0.00 in /  0 mm
10:26 54.9 °F /  12.7 °C 42.5 °F /  5.8 °C 29.95 in /  1014.1 hPa East 4.8 mph /  7.7 km/h 10.4 mph /  16.7 km/h 63 % 0.00 in /  0 mm
10:31 54.8 °F /  12.7 °C 42.0 °F /  5.6 °C 29.95 in /  1014.1 hPa ENE 6.1 mph /  9.8 km/h 10.4 mph /  16.7 km/h 62 % 0.00 in /  0 mm
10:36 54.6 °F /  12.6 °C 41.8 °F /  5.4 °C 29.95 in /  1014.1 hPa ENE 6.2 mph /  10 km/h 9.2 mph /  14.8 km/h 62 % 0.00 in /  0 mm
10:41 54.3 °F /  12.4 °C 42.0 °F /  5.6 °C 29.95 in /  1014.1 hPa NE 4.6 mph /  7.4 km/h 10.4 mph /  16.7 km/h 63 % 0.00 in /  0 mm
10:46 54.8 °F /  12.7 °C 42.9 °F /  6.1 °C 29.96 in /  1014.4 hPa ENE 7.9 mph /  12.7 km/h 12.0 mph /  19.3 km/h 64 % 0.00 in /  0 mm
10:52 54.9 °F /  12.7 °C 43.4 °F /  6.3 °C 29.95 in /  1014.1 hPa ENE 5.7 mph /  9.2 km/h 10.4 mph /  16.7 km/h 65 % 0.00 in /  0 mm
10:57 55.0 °F /  12.8 °C 42.2 °F /  5.7 °C 29.95 in /  1014.1 hPa NE 6.6 mph /  10.6 km/h 10.4 mph /  16.7 km/h 62 % 0.00 in /  0 mm
11:02 54.8 °F /  12.7 °C 42.9 °F /  6.1 °C 29.95 in /  1014.1 hPa NE 6.8 mph /  10.9 km/h 10.4 mph /  16.7 km/h 64 % 0.00 in /  0 mm
11:07 55.3 °F /  12.9 °C 43.3 °F /  6.3 °C 29.95 in /  1014.1 hPa ENE 6.8 mph /  10.9 km/h 11.5 mph /  18.5 km/h 64 % 0.00 in /  0 mm
11:12 55.2 °F /  12.9 °C 42.8 °F /  6 °C 29.95 in /  1014.1 hPa ENE 6.4 mph /  10.3 km/h 7.0 mph /  11.3 km/h 63 % 0.00 in /  0 mm
11:17 55.7 °F /  13.2 °C 43.7 °F /  6.5 °C 29.95 in /  1014.1 hPa ENE 6.2 mph /  10 km/h 9.2 mph /  14.8 km/h 64 % 0.00 in /  0 mm
11:22 55.9 °F /  13.3 °C 43.1 °F /  6.2 °C 29.95 in /  1014.1 hPa ENE 4.8 mph /  7.7 km/h 8.1 mph /  13 km/h 62 % 0.00 in /  0 mm
11:27 55.8 °F /  13.2 °C 42.1 °F /  5.6 °C 29.96 in /  1014.4 hPa ENE 3.9 mph /  6.3 km/h 10.4 mph /  16.7 km/h 60 % 0.00 in /  0 mm
11:32 56.0 °F /  13.3 °C 43.2 °F /  6.2 °C 29.95 in /  1014.1 hPa ENE 5.0 mph /  8 km/h 9.2 mph /  14.8 km/h 62 % 0.00 in /  0 mm
11:37 56.4 °F /  13.6 °C 43.5 °F /  6.4 °C 29.95 in /  1014.1 hPa NE 3.9 mph /  6.3 km/h 9.2 mph /  14.8 km/h 62 % 0.00 in /  0 mm
11:42 56.6 °F /  13.7 °C 42.4 °F /  5.8 °C 29.95 in /  1014.1 hPa East 4.6 mph /  7.4 km/h 8.1 mph /  13 km/h 59 % 0.00 in /  0 mm
11:47 56.1 °F /  13.4 °C 43.3 °F /  6.3 °C 29.95 in /  1014.1 hPa East 2.9 mph /  4.7 km/h 9.2 mph /  14.8 km/h 62 % 0.00 in /  0 mm
11:52 56.8 °F /  13.8 °C 43.5 °F /  6.4 °C 29.95 in /  1014.1 hPa NE 3.8 mph /  6.1 km/h 6.9 mph /  11.1 km/h 61 % 0.00 in /  0 mm
11:57 57.6 °F /  14.2 °C 42.5 °F /  5.8 °C 29.95 in /  1014.1 hPa ENE 6.7 mph /  10.8 km/h 10.4 mph /  16.7 km/h 57 % 0.00 in /  0 mm
12:02 57.3 °F /  14.1 °C 41.3 °F /  5.2 °C 29.95 in /  1014.1 hPa ENE 7.2 mph /  11.6 km/h 10.4 mph /  16.7 km/h 55 % 0.00 in /  0 mm
12:07 56.8 °F /  13.8 °C 42.2 °F /  5.7 °C 29.94 in /  1013.8 hPa ENE 2.9 mph /  4.7 km/h 6.9 mph /  11.1 km/h 58 % 0.00 in /  0 mm
12:12 57.1 °F /  13.9 °C 42.9 °F /  6.1 °C 29.94 in /  1013.8 hPa ENE 4.2 mph /  6.8 km/h 8.0 mph /  12.9 km/h 59 % 0.00 in /  0 mm
12:17 57.4 °F /  14.1 °C 44.5 °F /  6.9 °C 29.94 in /  1013.8 hPa ENE 2.4 mph /  3.9 km/h 3.5 mph /  5.6 km/h 62 % 0.00 in /  0 mm
12:22 57.7 °F /  14.3 °C 41.6 °F /  5.3 °C 29.94 in /  1013.8 hPa ENE 7.1 mph /  11.4 km/h 10.0 mph /  16.1 km/h 55 % 0.00 in /  0 mm
12:27 57.1 °F /  13.9 °C 41.5 °F /  5.3 °C 29.94 in /  1013.8 hPa ENE 4.3 mph /  6.9 km/h 8.1 mph /  13 km/h 56 % 0.00 in /  0 mm
12:32 57.3 °F /  14.1 °C 42.6 °F /  5.9 °C 29.94 in /  1013.8 hPa ENE 3.8 mph /  6.1 km/h 6.9 mph /  11.1 km/h 58 % 0.00 in /  0 mm
12:37 57.7 °F /  14.3 °C 41.6 °F /  5.3 °C 29.95 in /  1014.1 hPa ENE 3.3 mph /  5.3 km/h 8.1 mph /  13 km/h 55 % 0.00 in /  0 mm
12:42 57.8 °F /  14.3 °C 43.6 °F /  6.4 °C 29.95 in /  1014.1 hPa ENE 2.0 mph /  3.2 km/h 5.8 mph /  9.3 km/h 59 % 0.00 in /  0 mm
12:47 58.0 °F /  14.4 °C 41.9 °F /  5.5 °C 29.95 in /  1014.1 hPa ENE 5.9 mph /  9.5 km/h 9.2 mph /  14.8 km/h 55 % 0.00 in /  0 mm
12:52 57.8 °F /  14.3 °C 42.7 °F /  5.9 °C 29.95 in /  1014.1 hPa ENE 3.5 mph /  5.6 km/h 6.9 mph /  11.1 km/h 57 % 0.00 in /  0 mm
12:57 57.9 °F /  14.4 °C 43.7 °F /  6.5 °C 29.94 in /  1013.8 hPa ENE 2.7 mph /  4.3 km/h 4.6 mph /  7.4 km/h 59 % 0.00 in /  0 mm
13:02 58.3 °F /  14.6 °C 43.6 °F /  6.4 °C 29.94 in /  1013.8 hPa ENE 6.2 mph /  10 km/h 9.2 mph /  14.8 km/h 58 % 0.00 in /  0 mm
13:07 58.2 °F /  14.6 °C 43.9 °F /  6.6 °C 29.94 in /  1013.8 hPa ENE 5.4 mph /  8.7 km/h 9.0 mph /  14.5 km/h 59 % 0.00 in /  0 mm
13:12 58.0 °F /  14.4 °C 43.7 °F /  6.5 °C 29.94 in /  1013.8 hPa ENE 3.4 mph /  5.5 km/h 10.4 mph /  16.7 km/h 59 % 0.00 in /  0 mm
13:17 58.3 °F /  14.6 °C 44.0 °F /  6.7 °C 29.94 in /  1013.8 hPa NE 6.2 mph /  10 km/h 9.2 mph /  14.8 km/h 59 % 0.00 in /  0 mm
13:22 58.4 °F /  14.7 °C 44.1 °F /  6.7 °C 29.95 in /  1014.1 hPa ENE 5.7 mph /  9.2 km/h 11.0 mph /  17.7 km/h 59 % 0.00 in /  0 mm
13:27 58.4 °F /  14.7 °C 43.2 °F /  6.2 °C 29.95 in /  1014.1 hPa ENE 4.2 mph /  6.8 km/h 6.9 mph /  11.1 km/h 57 % 0.00 in /  0 mm
13:32 58.3 °F /  14.6 °C 43.6 °F /  6.4 °C 29.94 in /  1013.8 hPa ENE 3.1 mph /  5 km/h 10.4 mph /  16.7 km/h 58 % 0.00 in /  0 mm
13:37 57.9 °F /  14.4 °C 42.8 °F /  6 °C 29.94 in /  1013.8 hPa ENE 4.1 mph /  6.6 km/h 10.4 mph /  16.7 km/h 57 % 0.00 in /  0 mm
13:42 57.6 °F /  14.2 °C 43.4 °F /  6.3 °C 29.94 in /  1013.8 hPa NE 5.1 mph /  8.2 km/h 11.5 mph /  18.5 km/h 59 % 0.00 in /  0 mm
13:47 57.2 °F /  14 °C 43.9 °F /  6.6 °C 29.94 in /  1013.8 hPa NE 7.3 mph /  11.7 km/h 10.0 mph /  16.1 km/h 61 % 0.00 in /  0 mm
13:52 57.3 °F /  14.1 °C 44.0 °F /  6.7 °C 29.94 in /  1013.8 hPa ENE 4.9 mph /  7.9 km/h 9.2 mph /  14.8 km/h 61 % 0.00 in /  0 mm
13:57 57.6 °F /  14.2 °C 43.8 °F /  6.6 °C 29.95 in /  1014.1 hPa ENE 3.3 mph /  5.3 km/h 6.9 mph /  11.1 km/h 60 % 0.00 in /  0 mm
14:02 58.2 °F /  14.6 °C 44.8 °F /  7.1 °C 29.95 in /  1014.1 hPa ENE 3.2 mph /  5.1 km/h 6.9 mph /  11.1 km/h 61 % 0.00 in /  0 mm
14:05 58.4 °F /  14.7 °C 44.6 °F /  7 °C 29.94 in /  1013.8 hPa ENE 5.4 mph /  8.7 km/h 8.1 mph /  13 km/h 60 % 0.00 in /  0 mm
14:10 58.2 °F /  14.6 °C 43.0 °F /  6.1 °C 29.94 in /  1013.8 hPa ENE 4.1 mph /  6.6 km/h 10.4 mph /  16.7 km/h 57 % 0.00 in /  0 mm
14:15 58.3 °F /  14.6 °C 43.6 °F /  6.4 °C 29.94 in /  1013.8 hPa ENE 3.5 mph /  5.6 km/h 10.4 mph /  16.7 km/h 58 % 0.00 in /  0 mm
14:20 58.0 °F /  14.4 °C 44.2 °F /  6.8 °C 29.94 in /  1013.8 hPa ENE 2.4 mph /  3.9 km/h 8.1 mph /  13 km/h 60 % 0.00 in /  0 mm
14:25 58.1 °F /  14.5 °C 44.7 °F /  7.1 °C 29.94 in /  1013.8 hPa ENE 3.7 mph /  6 km/h 8.0 mph /  12.9 km/h 61 % 0.00 in /  0 mm
14:30 58.2 °F /  14.6 °C 44.8 °F /  7.1 °C 29.93 in /  1013.4 hPa NE 3.6 mph /  5.8 km/h 9.2 mph /  14.8 km/h 61 % 0.00 in /  0 mm
14:35 58.2 °F /  14.6 °C 44.8 °F /  7.1 °C 29.93 in /  1013.4 hPa ENE 4.8 mph /  7.7 km/h 8.1 mph /  13 km/h 61 % 0.00 in /  0 mm
14:40 58.2 °F /  14.6 °C 45.2 °F /  7.3 °C 29.93 in /  1013.4 hPa NE 4.9 mph /  7.9 km/h 8.1 mph /  13 km/h 62 % 0.00 in /  0 mm
14:45 58.1 °F /  14.5 °C 44.3 °F /  6.8 °C 29.93 in /  1013.4 hPa ENE 2.9 mph /  4.7 km/h 5.8 mph /  9.3 km/h 60 % 0.00 in /  0 mm
14:50 58.1 °F /  14.5 °C 45.1 °F /  7.3 °C 29.93 in /  1013.4 hPa ENE 4.0 mph /  6.4 km/h 4.0 mph /  6.4 km/h 62 % 0.00 in /  0 mm
14:55 58.3 °F /  14.6 °C 45.8 °F /  7.7 °C 29.93 in /  1013.4 hPa NE 1.6 mph /  2.6 km/h 3.5 mph /  5.6 km/h 63 % 0.00 in /  0 mm
15:00 58.2 °F /  14.6 °C 45.7 °F /  7.6 °C 29.93 in /  1013.4 hPa ENE 1.7 mph /  2.7 km/h 6.9 mph /  11.1 km/h 63 % 0.00 in /  0 mm
15:05 58.1 °F /  14.5 °C 43.8 °F /  6.6 °C 29.94 in /  1013.8 hPa ENE 4.4 mph /  7.1 km/h 8.1 mph /  13 km/h 59 % 0.00 in /  0 mm
15:10 58.0 °F /  14.4 °C 45.5 °F /  7.5 °C 29.93 in /  1013.4 hPa ENE 2.2 mph /  3.5 km/h 9.2 mph /  14.8 km/h 63 % 0.00 in /  0 mm
15:15 58.0 °F /  14.4 °C 45.5 °F /  7.5 °C 29.93 in /  1013.4 hPa ENE 1.6 mph /  2.6 km/h 6.9 mph /  11.1 km/h 63 % 0.00 in /  0 mm
15:20 58.3 °F /  14.6 °C 45.8 °F /  7.7 °C 29.93 in /  1013.4 hPa ENE 4.4 mph /  7.1 km/h 9.2 mph /  14.8 km/h 63 % 0.00 in /  0 mm
15:25 58.7 °F /  14.8 °C 45.7 °F /  7.6 °C 29.93 in /  1013.4 hPa ENE 3.1 mph /  5 km/h 7.0 mph /  11.3 km/h 62 % 0.00 in /  0 mm
15:30 58.4 °F /  14.7 °C 44.6 °F /  7 °C 29.93 in /  1013.4 hPa NE 2.7 mph /  4.3 km/h 9.2 mph /  14.8 km/h 60 % 0.00 in /  0 mm
15:35 58.1 °F /  14.5 °C 44.7 °F /  7.1 °C 29.92 in /  1013.1 hPa ENE 5.3 mph /  8.5 km/h 9.2 mph /  14.8 km/h 61 % 0.00 in /  0 mm
15:40 57.8 °F /  14.3 °C 45.3 °F /  7.4 °C 29.92 in /  1013.1 hPa ENE 0.8 mph /  1.3 km/h 2.3 mph /  3.7 km/h 63 % 0.00 in /  0 mm
15:45 58.3 °F /  14.6 °C 45.8 °F /  7.7 °C 29.93 in /  1013.4 hPa ENE 4.6 mph /  7.4 km/h 9.0 mph /  14.5 km/h 63 % 0.00 in /  0 mm
15:50 57.6 °F /  14.2 °C 43.8 °F /  6.6 °C 29.92 in /  1013.1 hPa East 2.4 mph /  3.9 km/h 8.1 mph /  13 km/h 60 % 0.00 in /  0 mm
15:55 57.1 °F /  13.9 °C 44.6 °F /  7 °C 29.92 in /  1013.1 hPa ENE 1.3 mph /  2.1 km/h 3.5 mph /  5.6 km/h 63 % 0.00 in /  0 mm
16:00 56.7 °F /  13.7 °C 44.2 °F /  6.8 °C 29.92 in /  1013.1 hPa ENE 1.7 mph /  2.7 km/h 3.5 mph /  5.6 km/h 63 % 0.00 in /  0 mm
16:06 56.4 °F /  13.6 °C 44.8 °F /  7.1 °C 29.92 in /  1013.1 hPa ENE 1.0 mph /  1.6 km/h 7.0 mph /  11.3 km/h 65 % 0.00 in /  0 mm
16:11 56.4 °F /  13.6 °C 44.8 °F /  7.1 °C 29.92 in /  1013.1 hPa ENE 1.0 mph /  1.6 km/h 3.0 mph /  4.8 km/h 65 % 0.00 in /  0 mm
16:16 56.2 °F /  13.4 °C 45.0 °F /  7.2 °C 29.92 in /  1013.1 hPa ENE 1.0 mph /  1.6 km/h 2.0 mph /  3.2 km/h 66 % 0.00 in /  0 mm
16:21 56.2 °F /  13.4 °C 45.0 °F /  7.2 °C 29.91 in /  1012.8 hPa ENE 1.0 mph /  1.6 km/h 4.0 mph /  6.4 km/h 66 % 0.00 in /  0 mm
16:26 56.1 °F /  13.4 °C 44.5 °F /  6.9 °C 29.92 in /  1013.1 hPa ENE 1.0 mph /  1.6 km/h 4.0 mph /  6.4 km/h 65 % 0.00 in /  0 mm
16:31 56.0 °F /  13.3 °C 44.8 °F /  7.1 °C 29.92 in /  1013.1 hPa ENE 2.0 mph /  3.2 km/h 3.0 mph /  4.8 km/h 66 % 0.00 in /  0 mm
16:36 56.0 °F /  13.3 °C 44.8 °F /  7.1 °C 29.92 in /  1013.1 hPa ENE 1.0 mph /  1.6 km/h 4.0 mph /  6.4 km/h 66 % 0.00 in /  0 mm
16:41 56.2 °F /  13.4 °C 45.4 °F /  7.4 °C 29.91 in /  1012.8 hPa ENE 1.0 mph /  1.6 km/h 2.0 mph /  3.2 km/h 67 % 0.00 in /  0 mm
16:46 56.4 °F /  13.6 °C 45.6 °F /  7.6 °C 29.91 in /  1012.8 hPa ENE 2.0 mph /  3.2 km/h 3.0 mph /  4.8 km/h 67 % 0.00 in /  0 mm
16:51 56.3 °F /  13.5 °C 43.4 °F /  6.3 °C 29.91 in /  1012.8 hPa ENE 1.0 mph /  1.6 km/h 3.0 mph /  4.8 km/h 62 % 0.00 in /  0 mm
16:56 56.3 °F /  13.5 °C 43.4 °F /  6.3 °C 29.92 in /  1013.1 hPa ENE 1.0 mph /  1.6 km/h 5.0 mph /  8 km/h 62 % 0.00 in /  0 mm
17:01 56.3 °F /  13.5 °C 43.0 °F /  6.1 °C 29.92 in /  1013.1 hPa NE 1.1 mph /  1.8 km/h 3.5 mph /  5.6 km/h 61 % 0.00 in /  0 mm
17:06 56.4 °F /  13.6 °C 42.2 °F /  5.7 °C 29.92 in /  1013.1 hPa ENE 1.3 mph /  2.1 km/h 3.5 mph /  5.6 km/h 59 % 0.00 in /  0 mm
17:11 56.6 °F /  13.7 °C 42.0 °F /  5.6 °C 29.92 in /  1013.1 hPa ENE 2.6 mph /  4.2 km/h 3.5 mph /  5.6 km/h 58 % 0.00 in /  0 mm
17:16 56.6 °F /  13.7 °C 42.0 °F /  5.6 °C 29.92 in /  1013.1 hPa ENE 1.6 mph /  2.6 km/h 2.3 mph /  3.7 km/h 58 % 0.00 in /  0 mm
17:21 56.5 °F /  13.6 °C 41.9 °F /  5.5 °C 29.93 in /  1013.4 hPa NE 2.4 mph /  3.9 km/h 3.5 mph /  5.6 km/h 58 % 0.00 in /  0 mm
17:26 56.4 °F /  13.6 °C 42.7 °F /  5.9 °C 29.92 in /  1013.1 hPa ENE 0.3 mph /  0.5 km/h 2.3 mph /  3.7 km/h 60 % 0.00 in /  0 mm
17:31 56.2 °F /  13.4 °C 42.5 °F /  5.8 °C 29.92 in /  1013.1 hPa Calm   2.3 mph /  3.7 km/h 60 % 0.00 in /  0 mm
17:36 56.1 °F /  13.4 °C 43.3 °F /  6.3 °C 29.92 in /  1013.1 hPa ENE 0.3 mph /  0.5 km/h 2.3 mph /  3.7 km/h 62 % 0.00 in /  0 mm
17:41 56.1 °F /  13.4 °C 44.5 °F /  6.9 °C 29.92 in /  1013.1 hPa ENE 0.8 mph /  1.3 km/h 3.5 mph /  5.6 km/h 65 % 0.00 in /  0 mm
17:46 56.0 °F /  13.3 °C 44.0 °F /  6.7 °C 29.92 in /  1013.1 hPa ENE 0.8 mph /  1.3 km/h 3.5 mph /  5.6 km/h 64 % 0.00 in /  0 mm
17:51 55.8 °F /  13.2 °C 43.8 °F /  6.6 °C 29.92 in /  1013.1 hPa Calm   1.2 mph /  1.9 km/h 64 % 0.00 in /  0 mm
17:56 55.7 °F /  13.2 °C 44.5 °F /  6.9 °C 29.93 in /  1013.4 hPa ENE 0.3 mph /  0.5 km/h 1.2 mph /  1.9 km/h 66 % 0.00 in /  0 mm
18:01 55.7 °F /  13.2 °C 44.1 °F /  6.7 °C 29.93 in /  1013.4 hPa ENE 1.2 mph /  1.9 km/h 3.5 mph /  5.6 km/h 65 % 0.00 in /  0 mm
18:06 55.6 °F /  13.1 °C 44.4 °F /  6.9 °C 29.93 in /  1013.4 hPa ENE 1.9 mph /  3.1 km/h 3.5 mph /  5.6 km/h 66 % 0.00 in /  0 mm
18:11 55.5 °F /  13.1 °C 44.3 °F /  6.8 °C 29.93 in /  1013.4 hPa ENE 0.8 mph /  1.3 km/h 3.5 mph /  5.6 km/h 66 % 0.00 in /  0 mm
18:16 55.2 °F /  12.9 °C 43.6 °F /  6.4 °C 29.93 in /  1013.4 hPa NE 2.3 mph /  3.7 km/h 3.5 mph /  5.6 km/h 65 % 0.00 in /  0 mm
18:21 55.0 °F /  12.8 °C 43.4 °F /  6.3 °C 29.94 in /  1013.8 hPa ENE 2.3 mph /  3.7 km/h 3.5 mph /  5.6 km/h 65 % 0.00 in /  0 mm
18:26 54.8 °F /  12.7 °C 43.7 °F /  6.5 °C 29.94 in /  1013.8 hPa ENE 0.8 mph /  1.3 km/h 3.5 mph /  5.6 km/h 66 % 0.00 in /  0 mm
18:31 54.6 °F /  12.6 °C 43.5 °F /  6.4 °C 29.94 in /  1013.8 hPa ENE 3.0 mph /  4.8 km/h 4.6 mph /  7.4 km/h 66 % 0.00 in /  0 mm
18:36 54.5 °F /  12.5 °C 43.8 °F /  6.6 °C 29.94 in /  1013.8 hPa NE 2.7 mph /  4.3 km/h 4.6 mph /  7.4 km/h 67 % 0.00 in /  0 mm
18:42 54.3 °F /  12.4 °C 44.0 °F /  6.7 °C 29.94 in /  1013.8 hPa East 3.9 mph /  6.3 km/h 5.0 mph /  8 km/h 68 % 0.00 in /  0 mm
18:47 53.9 °F /  12.2 °C 43.6 °F /  6.4 °C 29.94 in /  1013.8 hPa ENE 5.3 mph /  8.5 km/h 6.9 mph /  11.1 km/h 68 % 0.00 in /  0 mm
18:52 53.7 °F /  12.1 °C 44.1 °F /  6.7 °C 29.94 in /  1013.8 hPa ENE 0.7 mph /  1.1 km/h 4.6 mph /  7.4 km/h 70 % 0.00 in /  0 mm
18:57 53.6 °F /  12 °C 44.4 °F /  6.9 °C 29.94 in /  1013.8 hPa ENE 2.6 mph /  4.2 km/h 3.5 mph /  5.6 km/h 71 % 0.00 in /  0 mm
19:02 53.5 °F /  11.9 °C 44.0 °F /  6.7 °C 29.94 in /  1013.8 hPa NE 1.4 mph /  2.3 km/h 3.5 mph /  5.6 km/h 70 % 0.00 in /  0 mm
19:07 53.3 °F /  11.8 °C 43.8 °F /  6.6 °C 29.95 in /  1014.1 hPa ENE 4.2 mph /  6.8 km/h 7.0 mph /  11.3 km/h 70 % 0.00 in /  0 mm
19:12 53.1 °F /  11.7 °C 43.2 °F /  6.2 °C 29.95 in /  1014.1 hPa ENE 4.8 mph /  7.7 km/h 6.9 mph /  11.1 km/h 69 % 0.00 in /  0 mm
19:17 53.0 °F /  11.7 °C 43.8 °F /  6.6 °C 29.95 in /  1014.1 hPa ENE 3.8 mph /  6.1 km/h 8.0 mph /  12.9 km/h 71 % 0.00 in /  0 mm
19:22 52.9 °F /  11.6 °C 44.5 °F /  6.9 °C 29.95 in /  1014.1 hPa ENE 3.4 mph /  5.5 km/h 5.8 mph /  9.3 km/h 73 % 0.00 in /  0 mm
19:27 52.7 °F /  11.5 °C 43.9 °F /  6.6 °C 29.95 in /  1014.1 hPa ENE 1.3 mph /  2.1 km/h 3.5 mph /  5.6 km/h 72 % 0.00 in /  0 mm
19:32 52.6 °F /  11.4 °C 44.2 °F /  6.8 °C 29.95 in /  1014.1 hPa ENE 0.5 mph /  0.8 km/h 3.0 mph /  4.8 km/h 73 % 0.00 in /  0 mm
19:37 52.6 °F /  11.4 °C 44.2 °F /  6.8 °C 29.95 in /  1014.1 hPa ENE 2.8 mph /  4.5 km/h 6.0 mph /  9.7 km/h 73 % 0.00 in /  0 mm
19:42 52.5 °F /  11.4 °C 44.4 °F /  6.9 °C 29.95 in /  1014.1 hPa ENE 0.3 mph /  0.5 km/h 1.2 mph /  1.9 km/h 74 % 0.00 in /  0 mm
19:47 52.4 °F /  11.3 °C 44.4 °F /  6.9 °C 29.96 in /  1014.4 hPa ENE 2.0 mph /  3.2 km/h 3.5 mph /  5.6 km/h 74 % 0.00 in /  0 mm
19:52 52.3 °F /  11.3 °C 43.9 °F /  6.6 °C 29.95 in /  1014.1 hPa ENE 1.3 mph /  2.1 km/h 3.5 mph /  5.6 km/h 73 % 0.00 in /  0 mm
19:57 52.2 °F /  11.2 °C 43.8 °F /  6.6 °C 29.96 in /  1014.4 hPa ENE 1.1 mph /  1.8 km/h 3.5 mph /  5.6 km/h 73 % 0.00 in /  0 mm
20:02 52.1 °F /  11.2 °C 43.3 °F /  6.3 °C 29.96 in /  1014.4 hPa ENE 1.1 mph /  1.8 km/h 3.5 mph /  5.6 km/h 72 % 0.00 in /  0 mm
20:07 52.1 °F /  11.2 °C 43.3 °F /  6.3 °C 29.96 in /  1014.4 hPa ENE 0.3 mph /  0.5 km/h 2.3 mph /  3.7 km/h 72 % 0.00 in /  0 mm
20:12 52.1 °F /  11.2 °C 43.7 °F /  6.5 °C 29.96 in /  1014.4 hPa Calm   1.2 mph /  1.9 km/h 73 % 0.00 in /  0 mm
20:17 52.0 °F /  11.1 °C 43.6 °F /  6.4 °C 29.95 in /  1014.1 hPa ENE 0.9 mph /  1.4 km/h 2.3 mph /  3.7 km/h 73 % 0.00 in /  0 mm
20:22 52.0 °F /  11.1 °C 44.0 °F /  6.7 °C 29.96 in /  1014.4 hPa Calm     74 % 0.00 in /  0 mm
20:27 51.9 °F /  11.1 °C 43.9 °F /  6.6 °C 29.96 in /  1014.4 hPa Calm   1.2 mph /  1.9 km/h 74 % 0.00 in /  0 mm
20:32 51.9 °F /  11.1 °C 43.5 °F /  6.4 °C 29.96 in /  1014.4 hPa Calm     73 % 0.00 in /  0 mm
20:38 51.8 °F /  11 °C 43.4 °F /  6.3 °C 29.95 in /  1014.1 hPa Calm     73 % 0.00 in /  0 mm
20:43 51.8 °F /  11 °C 43.4 °F /  6.3 °C 29.96 in /  1014.4 hPa Calm     73 % 0.00 in /  0 mm
20:48 51.7 °F /  10.9 °C 43.0 °F /  6.1 °C 29.96 in /  1014.4 hPa Calm     72 % 0.00 in /  0 mm
20:53 51.7 °F /  10.9 °C 43.0 °F /  6.1 °C 29.96 in /  1014.4 hPa ENE 0.1 mph /  0.2 km/h 1.2 mph /  1.9 km/h 72 % 0.00 in /  0 mm
20:58 51.6 °F /  10.9 °C 42.9 °F /  6.1 °C 29.96 in /  1014.4 hPa Calm     72 % 0.00 in /  0 mm
21:03 51.5 °F /  10.8 °C 42.8 °F /  6 °C 29.96 in /  1014.4 hPa ENE 0.1 mph /  0.2 km/h 1.2 mph /  1.9 km/h 72 % 0.00 in /  0 mm
21:08 51.5 °F /  10.8 °C 42.8 °F /  6 °C 29.96 in /  1014.4 hPa Calm     72 % 0.00 in /  0 mm
21:13 51.4 °F /  10.8 °C 42.7 °F /  5.9 °C 29.97 in /  1014.8 hPa Calm     72 % 0.00 in /  0 mm
21:18 51.4 °F /  10.8 °C 42.7 °F /  5.9 °C 29.97 in /  1014.8 hPa Calm     72 % 0.00 in /  0 mm
21:23 51.3 °F /  10.7 °C 42.6 °F /  5.9 °C 29.97 in /  1014.8 hPa Calm     72 % 0.00 in /  0 mm
21:28 51.2 °F /  10.7 °C 42.5 °F /  5.8 °C 29.97 in /  1014.8 hPa Calm     72 % 0.00 in /  0 mm
21:33 51.1 °F /  10.6 °C 42.4 °F /  5.8 °C 29.97 in /  1014.8 hPa Calm     72 % 0.00 in /  0 mm
21:38 51.1 °F /  10.6 °C 42.4 °F /  5.8 °C 29.97 in /  1014.8 hPa Calm     72 % 0.00 in /  0 mm
21:43 51.0 °F /  10.6 °C 42.6 °F /  5.9 °C 29.97 in /  1014.8 hPa Calm     73 % 0.00 in /  0 mm
21:48 50.8 °F /  10.4 °C 42.5 °F /  5.8 °C 29.97 in /  1014.8 hPa Calm     73 % 0.00 in /  0 mm
21:53 50.8 °F /  10.4 °C 42.5 °F /  5.8 °C 29.97 in /  1014.8 hPa Calm     73 % 0.00 in /  0 mm
21:58 50.7 °F /  10.4 °C 42.4 °F /  5.8 °C 29.97 in /  1014.8 hPa Calm     73 % 0.00 in /  0 mm
22:03 50.6 °F /  10.3 °C 42.3 °F /  5.7 °C 29.97 in /  1014.8 hPa Calm     73 % 0.00 in /  0 mm
22:08 50.5 °F /  10.3 °C 42.5 °F /  5.8 °C 29.97 in /  1014.8 hPa Calm     74 % 0.00 in /  0 mm
22:13 50.5 °F /  10.3 °C 42.5 °F /  5.8 °C 29.97 in /  1014.8 hPa Calm     74 % 0.00 in /  0 mm
22:18 50.4 °F /  10.2 °C 42.4 °F /  5.8 °C 29.97 in /  1014.8 hPa Calm     74 % 0.00 in /  0 mm
22:23 50.3 °F /  10.2 °C 42.3 °F /  5.7 °C 29.97 in /  1014.8 hPa Calm     74 % 0.00 in /  0 mm
22:29 50.2 °F /  10.1 °C 42.2 °F /  5.7 °C 29.97 in /  1014.8 hPa Calm     74 % 0.00 in /  0 mm
22:34 50.1 °F /  10.1 °C 42.1 °F /  5.6 °C 29.97 in /  1014.8 hPa Calm     74 % 0.00 in /  0 mm
22:39 50.1 °F /  10.1 °C 42.5 °F /  5.8 °C 29.97 in /  1014.8 hPa Calm     75 % 0.00 in /  0 mm
22:44 49.9 °F /  9.9 °C 42.3 °F /  5.7 °C 29.97 in /  1014.8 hPa Calm     75 % 0.00 in /  0 mm
22:49 49.8 °F /  9.9 °C 42.2 °F /  5.7 °C 29.97 in /  1014.8 hPa Calm     75 % 0.00 in /  0 mm
22:54 49.7 °F /  9.8 °C 42.1 °F /  5.6 °C 29.96 in /  1014.4 hPa Calm     75 % 0.00 in /  0 mm
22:59 49.6 °F /  9.8 °C 42.0 °F /  5.6 °C 29.96 in /  1014.4 hPa Calm     75 % 0.00 in /  0 mm
23:04 49.5 °F /  9.7 °C 42.2 °F /  5.7 °C 29.96 in /  1014.4 hPa Calm     76 % 0.00 in /  0 mm
23:09 49.4 °F /  9.7 °C 42.1 °F /  5.6 °C 29.96 in /  1014.4 hPa Calm     76 % 0.00 in /  0 mm
23:14 49.2 °F /  9.6 °C 42.0 °F /  5.6 °C 29.96 in /  1014.4 hPa Calm     76 % 0.00 in /  0 mm
23:19 49.1 °F /  9.5 °C 41.9 °F /  5.5 °C 29.96 in /  1014.4 hPa Calm     76 % 0.00 in /  0 mm
23:24 49.0 °F /  9.4 °C 41.8 °F /  5.4 °C 29.96 in /  1014.4 hPa Calm     76 % 0.00 in /  0 mm
23:29 49.0 °F /  9.4 °C 41.8 °F /  5.4 °C 29.96 in /  1014.4 hPa Calm     76 % 0.00 in /  0 mm
23:34 48.9 °F /  9.4 °C 42.0 °F /  5.6 °C 29.96 in /  1014.4 hPa Calm     77 % 0.00 in /  0 mm
23:39 48.7 °F /  9.3 °C 41.8 °F /  5.4 °C 29.95 in /  1014.1 hPa Calm     77 % 0.00 in /  0 mm
23:44 48.6 °F /  9.2 °C 41.7 °F /  5.4 °C 29.95 in /  1014.1 hPa Calm     77 % 0.00 in /  0 mm
23:49 48.5 °F /  9.2 °C 41.6 °F /  5.3 °C 29.96 in /  1014.4 hPa Calm     77 % 0.00 in /  0 mm
23:54 48.4 °F /  9.1 °C 41.9 °F /  5.5 °C 29.96 in /  1014.4 hPa Calm     78 % 0.00 in /  0 mm
23:59 48.3 °F /  9.1 °C 42.1 °F /  5.6 °C 29.96 in /  1014.4 hPa Calm     79 % 0.00 in /  0 mm
Crab Meadow Weather
Compliments of Weather Underground - 3 mb

Script developed by  Jim McMurry - jmcmurry@mwt.net Adapted for the template by  Wim van der Kuil - Leuven-Template.eu

Weather Terms: Enhanced Fujita Scale or EF-Scale - A scale of wind damage intensity in which wind speeds are inferred from analysis of wind damage. All tornadoes and most other windstorms are assigned a numerical rating from this scale according to the most intense damage caused by the storm. EF0 (weak) 6585 mph, light damage EF1 (weak) 86110 mph, moderate damage EF2 (strong) 111135 mph, considerable damage EF3 (strong) 136165 mph, severe damage EF4 (violent) 166200 mph, devastating damage EF5 (violent) >200 mph, incredible damage.